This is the latest recevied weather packets stored in our database for station/object XE1GMR. If no packets are shown the sender has not sent any weather packets the latest 10 day(s).
| Time | Temp. | Humidity | Pressure | Rain* | Wind** | Luminosity | Snow |
|---|---|---|---|---|---|---|---|
| 1777538248 | 15° C | 48% | 1119.9 hPa | 0 mm | - | 0 W/m² | - |
| 1777537944 | 15° C | 48% | 1120.1 hPa | 0 mm | - | 0 W/m² | - |
| 1777537640 | 15° C | 48% | 1120.1 hPa | 0 mm | - | 0 W/m² | - |
| 1777537337 | 15.56° C | 49% | 1120 hPa | 0 mm | - | 0 W/m² | - |
| 1777537033 | 15.56° C | 48% | 1120.1 hPa | 0 mm | - | 0 W/m² | - |
| 1777536730 | 15.56° C | 48% | 1120.2 hPa | 0 mm | - | 0 W/m² | - |
| 1777536427 | 16.11° C | 46% | 1120.2 hPa | 0 mm | - | 0 W/m² | - |
| 1777536124 | 16.11° C | 45% | 1120.2 hPa | 0 mm | - | 0 W/m² | - |
| 1777535819 | 16.11° C | 46% | 1120.1 hPa | 0 mm | - | 0 W/m² | - |
| 1777535516 | 16.11° C | 44% | 1120.3 hPa | 0 mm | - | 0 W/m² | - |
| 1777535214 | 16.67° C | 44% | 1120.3 hPa | 0 mm | - | 0 W/m² | - |
| 1777534910 | 16.67° C | 44% | 1120.2 hPa | 0 mm | - | 0 W/m² | - |
| 1777534607 | 16.67° C | 42% | 1120.3 hPa | 0 mm | - | 0 W/m² | - |
| 1777534304 | 16.67° C | 42% | 1120.3 hPa | 0 mm | - | 0 W/m² | - |
| 1777534002 | 16.67° C | 43% | 1120.7 hPa | 0 mm | - | 0 W/m² | - |
| 1777533699 | 16.67° C | 45% | 1120.7 hPa | 0 mm | - | 0 W/m² | - |
| 1777533395 | 16.11° C | 46% | 1120.5 hPa | 0 mm | - | 0 W/m² | - |
| 1777533091 | 16.67° C | 46% | 1120.9 hPa | 0 mm | - | 0 W/m² | - |
| 1777532789 | 16.67° C | 46% | 1120.5 hPa | 0 mm | - | 0 W/m² | - |
| 1777532485 | 16.67° C | 45% | 1120.9 hPa | 0 mm | - | 0 W/m² | - |
| 1777532182 | 17.22° C | 45% | 1120.7 hPa | 0 mm | - | 0 W/m² | - |
| 1777531878 | 17.22° C | 43% | 1120.9 hPa | 0 mm | - | 0 W/m² | - |
| 1777531574 | 17.22° C | 43% | 1121 hPa | 0 mm | - | 0 W/m² | - |
| 1777531271 | 17.22° C | 44% | 1121 hPa | 0 mm | - | 0 W/m² | - |
| 1777530969 | 17.78° C | 43% | 1121 hPa | 0 mm | - | 0 W/m² | - |
* Rain latest hour (hover to see other rain measurements)
** Current wind speed in m/s (hover to see current wind gust speed)